[[{"header":{"parameterUnit":"m.s-1","parameterCategory":1,"la1":30.2992,"la2":30.254,"lo1":-89.0895,"lo2":-89.0443,"dy":0.0025,"dx":0.0025,"nx":19,"ny":19,"refTime":"2026-05-10T09:00:00:Z","depth":0,"parameterNumber":2,"parameterNumberName":"U-component_of_WINDS"},"data":[0,0,0,-1.4735,-1.4735,-1.4734,-1.4734,-1.4753,-1.4753,0,0,0,0,0,0,0,0,0,0,0,-1.4747,-1.4748,-1.4735,-1.4735,-1.4734,-1.4734,-1.4753,-1.4753,0,0,0,0,0,0,0,0,0,0,0,-1.4747,-1.4748,-1.4748,-1.4735,-1.4735,-1.4734,-1.4753,-1.4746,0,0,0,0,0,0,0,0,0,0,-1.4744,-1.4767,-1.4747,-1.4748,-1.4735,-1.4735,-1.4734,-1.4746,-1.4747,-1.4762,0,-1.4778,0,-1.4766,-1.4756,-1.4756,0,0,0,-1.4726,-1.4766,-1.4755,-1.4748,-1.4735,-1.4735,-1.4732,-1.4746,-1.4747,-1.4763,-1.4778,-1.4778,-1.4766,-1.4756,-1.4756,-1.4871,-1.4872,0,0,-1.4726,-1.4754,-1.4754,-1.4756,-1.4758,-1.4732,-1.4732,-1.4746,-1.4765,-1.4778,-1.4778,-1.4767,-1.4756,-1.4756,-1.4871,-1.4872,0,0,0,-1.4732,-1.4754,-1.4742,-1.4756,-1.4755,-1.4733,-1.4733,-1.4764,-1.4758,-1.4779,-1.4767,-1.4756,-1.4757,-1.4869,-1.4871,-1.4945,0,0,0,-1.4732,-1.4758,-1.4743,-1.4759,-1.4755,-1.476,-1.4751,-1.4757,-1.4758,-1.4767,-1.4756,-1.4757,-1.4868,-1.487,-1.4941,-1.4977,0,0,0,-1.4743,-1.4759,-1.4763,-1.4761,-1.4762,-1.4759,-1.4753,-1.4756,-1.4751,-1.4756,-1.4757,-1.4868,-1.487,-1.4937,-1.497,-1.5015,0,0,0,-1.4763,-1.483,-1.4765,-1.4834,-1.4762,-1.4804,-1.4752,-1.4783,-1.4796,-1.4757,-1.4869,-1.4871,-1.4936,-1.4966,-1.5011,-1.5058,-1.5081,0,0,-1.4862,-1.4843,-1.4881,-1.4823,-1.4884,-1.4802,-1.4874,-1.486,-1.4835,-1.4861,-1.4863,-1.4942,-1.497,-1.5014,-1.5194,-1.5211,0,0,0,-1.4922,-1.495,-1.496,-1.4973,-1.4964,-1.4958,-1.493,-1.4924,-1.4944,-1.4854,-1.4969,-1.4985,-1.501,-1.5031,-1.5046,-1.5066,-1.4882,-1.4881,-1.4881,-1.5103,-1.5067,-1.5128,-1.5092,-1.5105,-1.5075,-1.5082,-1.5069,-1.503,-1.5057,-1.5065,-1.5178,-1.5205,-1.5216,-1.5237,-1.5086,-1.5087,-1.5087,-1.5087,-1.5245,-1.528,-1.5224,-1.5263,-1.5225,-1.5257,-1.523,-1.52,-1.5225,-1.517,-1.519,-1.5134,-1.5236,-1.5253,-1.5092,-1.5091,-1.5091,-1.509,-1.509,-1.5361,-1.5371,-1.5362,-1.5377,-1.5392,-1.5352,-1.5378,-1.5342,-1.5308,-1.5328,-1.5332,-1.533,-1.5325,-1.5332,-1.5332,-1.5333,-1.5333,-1.5333,-1.5333,-1.5485,-1.5472,-1.5499,-1.5493,-1.5496,-1.5495,-1.5463,-1.5465,-1.5458,-1.543,-1.5429,-1.5387,-1.5253,-1.522,-1.5339,-1.5338,-1.5338,-1.5337,-1.5337,-1.5645,-1.5602,-1.5643,-1.5646,-1.5635,-1.5652,-1.5604,-1.5611,-1.5607,-1.5621,-1.5573,-1.548,-1.5457,-1.5445,-1.5418,-1.5581,-1.5581,-1.5581,-1.5581,-1.5743,-1.5727,-1.576,-1.5767,-1.5769,-1.573,-1.5777,-1.5752,-1.572,-1.5715,-1.5686,-1.5646,-1.5635,-1.5619,-1.5603,-1.5577,-1.5777,-1.5777,-1.5778,-1.5839,-1.5822,-1.5869,-1.5837,-1.5825,-1.5816,-1.5858,-1.5868,-1.5823,-1.5785,-1.5711,-1.5702,-1.5638,-1.5619,-1.5581,-1.5557,-1.5509,0,0]},{"header":{"parameterUnit":"m.s-1","parameterCategory":1,"la1":30.2992,"la2":30.254,"lo1":-89.0895,"lo2":-89.0443,"dy":0.0025,"dx":0.0025,"nx":19,"ny":19,"refTime":"2026-05-10T09:00:00:Z","depth":0,"parameterNumber":3,"parameterNumberName":"V-component_of_WINDS"},"data":[0,0,0,-2.3548,-2.3547,-2.3539,-2.3539,-2.3526,-2.3525,0,0,0,0,0,0,0,0,0,0,0,-2.355,-2.355,-2.3548,-2.3547,-2.3539,-2.3539,-2.3526,-2.3525,0,0,0,0,0,0,0,0,0,0,0,-2.355,-2.355,-2.355,-2.3547,-2.3539,-2.3539,-2.3526,-2.3533,0,0,0,0,0,0,0,0,0,0,-2.3541,-2.3543,-2.355,-2.355,-2.3547,-2.3539,-2.3539,-2.3533,-2.3532,-2.3528,0,-2.3526,0,-2.3526,-2.3524,-2.3524,0,0,0,-2.3547,-2.3544,-2.3542,-2.355,-2.3547,-2.3539,-2.3543,-2.3533,-2.3532,-2.3527,-2.3526,-2.3526,-2.3525,-2.3524,-2.3524,-2.3504,-2.3504,0,0,-2.3548,-2.3548,-2.3542,-2.3541,-2.3544,-2.3543,-2.3543,-2.3532,-2.353,-2.3526,-2.3525,-2.3525,-2.3524,-2.3524,-2.3504,-2.3504,0,0,0,-2.3549,-2.3548,-2.3547,-2.3542,-2.3541,-2.3543,-2.3542,-2.3531,-2.353,-2.3525,-2.3525,-2.3524,-2.3524,-2.3505,-2.3504,-2.3499,0,0,0,-2.3549,-2.3549,-2.3547,-2.3547,-2.3541,-2.3536,-2.3541,-2.3531,-2.353,-2.3525,-2.3524,-2.3524,-2.3505,-2.3504,-2.35,-2.3497,0,0,0,-2.355,-2.3549,-2.3548,-2.3547,-2.3543,-2.3536,-2.3535,-2.3531,-2.353,-2.3524,-2.3524,-2.3505,-2.3504,-2.35,-2.3498,-2.3491,0,0,0,-2.3551,-2.3544,-2.3548,-2.354,-2.3543,-2.3534,-2.3535,-2.3528,-2.3523,-2.3524,-2.3505,-2.3504,-2.35,-2.3498,-2.3491,-2.3484,-2.3482,0,0,-2.3543,-2.3543,-2.3539,-2.3541,-2.3531,-2.3535,-2.3523,-2.3518,-2.3517,-2.3508,-2.3508,-2.35,-2.3498,-2.3491,-2.3469,-2.3468,0,0,0,-2.3536,-2.3532,-2.3529,-2.3525,-2.3521,-2.3517,-2.3514,-2.3511,-2.3503,-2.3513,-2.3496,-2.3495,-2.349,-2.3487,-2.3485,-2.3481,-2.3503,-2.3503,-2.3503,-2.3524,-2.3523,-2.3514,-2.3512,-2.3507,-2.3503,-2.3498,-2.3494,-2.3495,-2.349,-2.3488,-2.3475,-2.3471,-2.347,-2.3465,-2.3485,-2.3485,-2.3485,-2.3485,-2.351,-2.3504,-2.3504,-2.3496,-2.3494,-2.3487,-2.3481,-2.3482,-2.3473,-2.3478,-2.3474,-2.3479,-2.3468,-2.3464,-2.3484,-2.3484,-2.3485,-2.3485,-2.3485,-2.3502,-2.3499,-2.3496,-2.3488,-2.3481,-2.3478,-2.3469,-2.3468,-2.3466,-2.3463,-2.3458,-2.3458,-2.3457,-2.3461,-2.3461,-2.3461,-2.3461,-2.3461,-2.3461,-2.3494,-2.3491,-2.3484,-2.3478,-2.3474,-2.3468,-2.3462,-2.3457,-2.3451,-2.345,-2.345,-2.345,-2.3468,-2.3472,-2.346,-2.346,-2.346,-2.346,-2.346,-2.3479,-2.3482,-2.3472,-2.3467,-2.3459,-2.345,-2.3449,-2.3438,-2.3434,-2.3429,-2.3429,-2.3443,-2.3443,-2.3444,-2.3447,-2.343,-2.343,-2.343,-2.343,-2.3472,-2.3472,-2.346,-2.3452,-2.3445,-2.3441,-2.3427,-2.3421,-2.3415,-2.3411,-2.3414,-2.3418,-2.3419,-2.3419,-2.3421,-2.3423,-2.3401,-2.34,-2.34,-2.3462,-2.3461,-2.345,-2.3445,-2.3438,-2.343,-2.3416,-2.3405,-2.3399,-2.3399,-2.3408,-2.3409,-2.3416,-2.3419,-2.3419,-2.3422,-2.3427,0,0]}]]